Volver al catálogo

COSMOS 2251 DEB

ActivoLEO
NORAD 35717·DEBRIS·🇷🇺 Russia

Lanzado Jun 16, 1993 desde Plesetsk Cosmodrome

Loading…

Próximos Pases (próximas 24 horas)

TLE

EnvejeciendoSource: Space-Track

Época: Sep 11, 2026, 04:46 UTC

1 35717U 93036AQN 26254.19866154  .00002038  00000-0  63098-3 0  9995
2 35717  74.1585  78.2170 0075138 220.2374 139.3207 14.40231587780201

Sigue COSMOS 2251 DEB en tiempo real con AllMySat

Download on the App Store